{"data":{"norad_id":64294,"epoch":"2026-05-24T23:40:11.021952Z","epoch_age_seconds":75942,"freshness":"FRESH","line1":"1 64294U 25123D   26144.98623868  .00003636  00000+0  31235-3 0  9999","line2":"2 64294  70.0023   2.2198 0003004 263.4068  96.6749 14.98336307 54269","mean_motion":14.98336307,"eccentricity":0.0003004,"inclination_deg":70.0023,"raan_deg":2.2198,"arg_perigee_deg":263.4068,"mean_anomaly_deg":96.6749,"bstar":0.00031235,"rev_number":5426,"period_min":96.106594579103,"perigee_km":569.9485550501,"apogee_km":574.12421922109,"semimajor_km":6950.1733871356,"source":"CELESTRAK","updated_at":"2026-05-25T13:38:20.365088Z"}}